FENGYUN 1C DEB, 35154

Orbit data source: Space-Track

FENGYUN 1C DEB, 35154 is space debris in SSO originally from a launch on Mon, 10 May 1999 UTC launched from the Taiyaun Space Center, China (TSC). Fengyun 1C debris stems from the Chinese weather satellite Fengyun-1C, which was intentionally destroyed by a Chinese anti-satellite missile in 2007. This event dramatically increased the amount of space debris, with thousands of trackable fragments posing hazards to satellites and human spaceflight. The Fengyun 1C debris cloud has become a focal point in discussions about space sustainability and the need for international regulations to prevent the creation of new debris.

Loading next visibility...
Identifier
35154, 1999-025DMJ
Orbit
SSO
Country
Flag of CNCN / PRC
Related business
Manufacturer
Unknown
Mission
Spacecraft
Bus & Motor
Unknown
Mass
Unknown
Launch date (UTC)
1999-05-10 (27 years ago)
Launch vehicle
Unknown
Launch site
Taiyaun Space Center, China (TSC)
Object type
Payload
Rocket body
Debris
Shape & HBR
Unknown shape, 0.1 m
Radar Cross Section
Small (<0.1 m²)

Expand to show TLE details & history
Last TLE update: 2 days ago

TLE from 2 days ago
0 FENGYUN 1C DEB
1 35154U 99025DMJ 26167.15907219  .00000628  00000-0  27720-3 0  9996
2 35154  99.4445 305.5499 0177484 240.0903 118.2539 14.19267028672070
Epoch: 2026-06-16T03:49Z
TLE epoch observation values (Epoch: 2026-06-16T03:49:03.837Z)
Latitude
-0.00002°
Longitude
-16.1512°
Altitude
893.016 km
Speed
7.374 km/s
True Right ascension
20h 22m 11s
True Declination
0° 00' 00"
Sunlit
Object was in full shadow at epoch
Visualization orbit readout
Latitude
Unknown
Longitude
Unknown
Altitude
Unknown
Speed
Unknown
Apparent Right ascension
Unknown
Apparent Declination
Unknown
Sunlit
N/A
Visualization observer readout
Local Sidereal Time
20:27:32
Azimuth
Unknown
Elevation
Unknown
Doppler factor
Unknown
Orbital elements
Apogee altitude
952.872 km
Perigee altitude
697.183 km
Semi-major axis
7,203.165 km
Eccentricity
0.01775
Inclination
99.4445°
RAAN
305.5499°
Arg. of periapsis
240.0903°
True anomaly
120.0265°
Mean anomaly
118.2539°
Eccentric anomaly
119.14208°
Mean motion
3.55024 °/min
Orbital period
101.4 mins
BSTAR
0.0002772
Loading maneuver chart data...
Computing Atmospheric mass density...
Loading historical data...
Loading historical data...
Loading historical data...
Loading historical data...
Loading historical data...
Loading historical data...
Loading historical data...

Documentation

Showing up to 5 results
|